TimeCDT,TemperatureF,Dew PointF,Humidity,Sea Level PressureIn,VisibilityMPH,Wind Direction,Wind SpeedMPH,Gust SpeedMPH,PrecipitationIn,Events,Conditions,WindDirDegrees,DateUTC
12:15 AM,71.8,52.7,51,30.16,10.0,South,11.5,-,N/A,,Clear,170,2013-08-22 05:15:00
12:35 AM,70.9,52.9,53,30.16,10.0,South,10.4,-,N/A,,Clear,180,2013-08-22 05:35:00
12:55 AM,69.3,53.1,56,30.16,10.0,South,8.1,-,N/A,,Clear,170,2013-08-22 05:55:00
1:15 AM,68.0,53.1,59,30.14,10.0,South,10.4,-,N/A,,Clear,170,2013-08-22 06:15:00
1:35 AM,68.0,52.9,58,30.14,10.0,South,10.4,-,N/A,,Clear,180,2013-08-22 06:35:00
1:55 AM,68.4,52.7,57,30.14,10.0,South,10.4,-,N/A,,Clear,180,2013-08-22 06:55:00
2:15 AM,68.2,52.7,58,30.14,10.0,South,9.2,-,N/A,,Clear,180,2013-08-22 07:15:00
2:35 AM,67.3,52.7,59,30.13,10.0,South,8.1,-,N/A,,Clear,180,2013-08-22 07:35:00
2:55 AM,66.6,52.9,61,30.13,10.0,South,8.1,-,N/A,,Clear,180,2013-08-22 07:55:00
3:15 AM,66.0,52.9,63,30.13,10.0,South,8.1,-,N/A,,Clear,190,2013-08-22 08:15:00
3:35 AM,64.9,52.9,65,30.13,10.0,South,8.1,-,N/A,,Clear,180,2013-08-22 08:35:00
3:55 AM,64.8,53.1,66,30.13,10.0,South,8.1,-,N/A,,Clear,180,2013-08-22 08:55:00
4:15 AM,64.9,53.1,65,30.12,10.0,South,9.2,-,N/A,,Clear,170,2013-08-22 09:15:00
4:35 AM,64.6,53.1,66,30.12,10.0,South,4.6,-,N/A,,Clear,170,2013-08-22 09:35:00
4:55 AM,63.7,53.1,68,30.12,10.0,South,5.8,-,N/A,,Clear,170,2013-08-22 09:55:00
5:15 AM,63.1,53.2,70,30.13,10.0,South,5.8,-,N/A,,Clear,190,2013-08-22 10:15:00
5:35 AM,61.7,53.1,73,30.13,10.0,South,6.9,-,N/A,,Clear,180,2013-08-22 10:35:00
5:55 AM,59.9,52.9,78,30.14,10.0,South,8.1,-,N/A,,Clear,190,2013-08-22 10:55:00
6:15 AM,58.3,52.7,82,30.14,10.0,SSW,5.8,-,N/A,,Clear,200,2013-08-22 11:15:00
6:35 AM,58.5,53.1,82,30.14,10.0,South,8.1,-,N/A,,Clear,190,2013-08-22 11:35:00
6:55 AM,59.0,53.1,81,30.14,10.0,South,6.9,-,N/A,,Clear,180,2013-08-22 11:55:00
7:15 AM,58.5,53.1,82,30.14,10.0,South,6.9,-,N/A,,Clear,180,2013-08-22 12:15:00
7:35 AM,59.2,53.4,81,30.14,10.0,South,6.9,-,N/A,,Clear,190,2013-08-22 12:35:00
7:55 AM,61.7,53.8,75,30.14,10.0,South,8.1,-,N/A,,Clear,180,2013-08-22 12:55:00
8:15 AM,64.6,54.3,69,30.15,10.0,SSW,10.4,-,N/A,,Clear,200,2013-08-22 13:15:00
8:35 AM,67.3,54.9,64,30.16,10.0,South,9.2,-,N/A,,Clear,190,2013-08-22 13:35:00
8:55 AM,70.7,54.9,57,30.16,10.0,South,9.2,-,N/A,,Clear,190,2013-08-22 13:55:00
9:15 AM,73.4,54.7,52,30.16,10.0,South,12.7,-,N/A,,Clear,190,2013-08-22 14:15:00
9:35 AM,75.4,56.1,51,30.16,10.0,SSW,13.8,18.4,N/A,,Clear,200,2013-08-22 14:35:00
9:55 AM,77.2,57.9,51,30.16,10.0,SSW,15.0,-,N/A,,Clear,210,2013-08-22 14:55:00
10:15 AM,79.0,58.1,49,30.17,10.0,SSW,13.8,-,N/A,,Clear,210,2013-08-22 15:15:00
10:35 AM,80.6,57.7,45,30.17,10.0,SSW,18.4,21.9,N/A,,Clear,200,2013-08-22 15:35:00
10:55 AM,81.5,56.5,42,30.17,10.0,SSW,15.0,20.7,N/A,,Clear,200,2013-08-22 15:55:00
11:15 AM,83.1,56.3,40,30.17,10.0,SSW,12.7,20.7,N/A,,Clear,200,2013-08-22 16:15:00
11:35 AM,83.3,53.8,36,30.16,10.0,SSW,15.0,-,N/A,,Clear,210,2013-08-22 16:35:00
11:55 AM,84.2,55.4,37,30.16,10.0,SSW,15.0,18.4,N/A,,Clear,200,2013-08-22 16:55:00
12:15 PM,85.1,53.8,34,30.15,10.0,SSW,15.0,18.4,N/A,,Clear,200,2013-08-22 17:15:00
12:35 PM,86.9,54.0,32,30.14,10.0,SW,11.5,16.1,N/A,,Clear,220,2013-08-22 17:35:00
12:55 PM,87.3,54.0,32,30.14,10.0,SSW,8.1,-,N/A,,Clear,210,2013-08-22 17:55:00
1:15 PM,87.6,52.9,30,30.13,10.0,SSW,10.4,19.6,N/A,,Clear,210,2013-08-22 18:15:00
1:35 PM,88.5,52.2,29,30.13,10.0,SW,11.5,19.6,N/A,,Clear,220,2013-08-22 18:35:00
1:55 PM,88.7,50.4,27,30.12,10.0,South,11.5,-,N/A,,Clear,180,2013-08-22 18:55:00
2:15 PM,89.8,51.3,27,30.12,10.0,South,12.7,-,N/A,,Clear,190,2013-08-22 19:15:00
2:35 PM,90.0,49.8,25,30.10,10.0,SW,10.4,16.1,N/A,,Clear,230,2013-08-22 19:35:00
2:55 PM,90.7,48.6,23,30.10,7.0,SW,12.7,-,N/A,,Clear,220,2013-08-22 19:55:00
3:15 PM,90.9,46.4,22,30.10,10.0,SSW,8.1,-,N/A,,Clear,200,2013-08-22 20:15:00
3:35 PM,91.4,46.8,21,30.09,7.0,SSW,6.9,-,N/A,,Clear,210,2013-08-22 20:35:00
3:55 PM,91.9,45.5,20,30.08,10.0,South,11.5,17.3,N/A,,Clear,190,2013-08-22 20:55:00
4:15 PM,92.5,45.7,20,30.08,10.0,SW,10.4,-,N/A,,Clear,220,2013-08-22 21:15:00
4:35 PM,92.3,43.9,19,30.07,10.0,SW,12.7,17.3,N/A,,Clear,220,2013-08-22 21:35:00
4:55 PM,91.8,41.4,17,30.07,10.0,SSW,8.1,-,N/A,,Clear,210,2013-08-22 21:55:00
5:15 PM,91.8,40.8,17,30.07,10.0,South,8.1,-,N/A,,Clear,190,2013-08-22 22:15:00
5:35 PM,91.4,44.2,19,30.06,10.0,South,10.4,18.4,N/A,,Clear,190,2013-08-22 22:35:00
5:55 PM,91.2,45.0,20,30.06,10.0,SSW,8.1,-,N/A,,Clear,200,2013-08-22 22:55:00
6:15 PM,90.5,45.7,21,30.05,10.0,South,9.2,16.1,N/A,,Clear,180,2013-08-22 23:15:00
6:35 PM,90.0,47.5,23,30.04,10.0,SSW,5.8,-,N/A,,Clear,200,2013-08-22 23:35:00
6:55 PM,88.9,47.7,24,30.04,10.0,SSW,9.2,-,N/A,,Clear,210,2013-08-22 23:55:00
7:15 PM,88.2,48.6,25,30.04,10.0,SSW,9.2,-,N/A,,Clear,210,2013-08-23 00:15:00
7:35 PM,86.2,49.5,28,30.05,10.0,SSW,6.9,-,N/A,,Clear,210,2013-08-23 00:35:00
7:55 PM,83.5,48.9,30,30.06,10.0,South,6.9,-,N/A,,Clear,170,2013-08-23 00:55:00
8:15 PM,81.9,51.8,35,30.06,10.0,SE,10.4,-,N/A,,Clear,140,2013-08-23 01:15:00
8:35 PM,80.1,51.6,37,30.06,10.0,SSE,10.4,-,N/A,,Clear,150,2013-08-23 01:35:00
8:55 PM,78.3,51.8,40,30.06,10.0,SSE,10.4,-,N/A,,Clear,150,2013-08-23 01:55:00
9:15 PM,77.7,51.4,40,30.07,10.0,SSE,11.5,-,N/A,,Clear,150,2013-08-23 02:15:00
9:35 PM,77.5,52.0,41,30.08,10.0,SSE,9.2,-,N/A,,Clear,150,2013-08-23 02:35:00
9:55 PM,75.6,52.7,45,30.08,10.0,SSE,10.4,-,N/A,,Clear,150,2013-08-23 02:55:00
10:15 PM,74.8,52.7,46,30.09,10.0,SE,11.5,-,N/A,,Clear,140,2013-08-23 03:15:00
10:35 PM,73.8,52.9,48,30.10,10.0,SSE,9.2,-,N/A,,Clear,150,2013-08-23 03:35:00
10:55 PM,71.8,53.6,53,30.10,10.0,SSE,8.1,-,N/A,,Clear,150,2013-08-23 03:55:00
11:15 PM,71.6,53.6,53,30.11,10.0,SE,6.9,-,N/A,,Clear,140,2013-08-23 04:15:00
11:35 PM,70.7,53.6,55,30.11,10.0,SSE,6.9,-,N/A,,Clear,150,2013-08-23 04:35:00
11:55 PM,67.6,53.6,61,30.11,10.0,SSE,5.8,-,N/A,,Clear,150,2013-08-23 04:55:00